Location: Bégole
(43.1574°N, 0.3291°E)
Time: 02:46:49
(UTC+00:00)

YAOGAN 1 - Pass Details

Date: 28 January 2023
Orbit: 616 x 618 km, 97.8° (Epoch: 27 March)

Event Time Altitude Azimuth Distance (km) Brightness Sun altitude
Rises 18:02:45 0° 141° (SE) 2,879 5.7 -10.7°
Reaches altitude 10° 18:05:06 10° 131° (SE) 1,979 4.8 -11.1°
Maximum altitude 18:08:54 32° 69° (ENE) 1,079 3.2 -11.8°
Drops below altitude 10° 18:12:44 10° 7° (N) 1,994 5.0 -12.5°
Sets 18:15:06 0° 357° (N) 2,905 5.9 -12.9°
